BREEZE-M R/B, 39128

Orbit data source: Space-Track

BREEZE-M R/B, 39128 is space debris in HEO originally from a launch on Mon, 15 Apr 2013 UTC launched from the Tyuratam Missile And Space Complex (TTMTR). Debris objects in space refer to the collection of defunct objects orbiting the Earth. Examples of debris include non-operational satellites, rocket bodies, and fragments generated from explosions, collisions, or faulty payload assembly.

Loading next visibility...
Identifier
39128, 2013-014B
Orbit
HEO
Country
Flag of CISCIS
Related business
Manufacturer
Khrunichev
Mission
Spacecraft
Bus & Motor
BRIZ, Unknown motor
Mass
~1,600 kg wet, 1,600 kg dry
Launch date (UTC)
2013-04-15 (12 years ago)
Launch vehicle
Unknown
Launch site
Tyuratam Missile And Space Complex (TTMTR)
Object type
Payload
Rocket body
Debris
Shape & HBR
Cyl, 2.0 m
Radar Cross Section
14.451 m², Large (>1 m²)

Expand to show TLE details & history
Last TLE update: 1 day ago

TLE from 1 day ago
0 BREEZE-M R/B
1 39128U 13014B   25241.53517053 -.00000148  00000-0  00000-0 0  9999
2 39128  15.3805  31.6493 4792596 156.4246 236.1400  1.90430071 86064
Epoch: 2025-08-29T12:50Z
TLE epoch observation values (Epoch: 2025-08-29T12:50:38.733Z)
Latitude
-0.00004°
Longitude
-138.9725°
Altitude
31,370.248 km
Speed
2.573 km/s
True Right ascension
02h 06m 41s
True Declination
0° 00' 00"
Sunlit
Object was in daylight at epoch
Visualization orbit readout
Latitude
Unknown
Longitude
Unknown
Altitude
Unknown
Speed
Unknown
Apparent Right ascension
Unknown
Apparent Declination
Unknown
Sunlit
N/A
Visualization observer readout
Local Sidereal Time
15:52:43
Azimuth
Unknown
Elevation
Unknown
Doppler factor
Unknown
Orbital elements
Apogee altitude
34,296.432 km
Perigee altitude
7,940.439 km
Semi-major axis
27,496.573 km
Eccentricity
0.47926
Inclination
15.3805°
RAAN
31.6493°
Arg. of periapsis
156.4246°
True anomaly
203.66552°
Mean anomaly
236.14°
Eccentric anomaly
218.89739°
Mean motion
0.47602 °/min
Orbital period
756.27 mins
BSTAR
0
Loading maneuver chart data...
Computing Atmospheric mass density...
Loading historical data...
Loading historical data...
Loading historical data...
Loading historical data...
Loading historical data...
Loading historical data...
Loading historical data...
Other satellites on launch #14 in the year 2013 (2013-04-15 UTC)

Documentation

Showing up to 5 results
|